Regional Weather Roundup
Issued by NWS Sioux Falls, SD

Home | Current Version | Previous Version | Text Only | Print | Product List | Glossary Off
Versions: 1 2 3 4 5 6 7 8 9 10 11 12 13 14 15 16 17 18 19 20 21 22 23 24 25 26 27 28 29 30 31 32 33 34 35 36 37 38 39 40 41 42 43 44 45 46 47 48 49 50

513
ASUS43 KFSD 270210
RWRFSD

WEATHER ROUNDUP FOR SE SOUTH DAKOTA/SW MINNESOTA/NW IOWA
NATIONAL WEATHER SERVICE SIOUX FALLS SD
900 PM CDT WED JUL 26 2017

NOTE: "FAIR" INDICATES FEW OR NO CLOUDS BELOW 12,000 FEET WITH NO
SIGNIFICANT WEATHER AND OR OBSTRUCTIONS TO VISIBILITY.


SDZ038>040-050-052>070-270300-
SOUTHEAST SOUTH DAKOTA

CITY           SKY/WX    TMP DP  RH WIND       PRES   REMARKS
BROOKINGS      CLEAR     74  60  61 NE3       30.08R
CHAMBERLAIN    CLEAR     79  61  54 CALM      30.09S
HURON          CLEAR     76  60  57 NE5       30.07R
MADISON        FAIR      70  70 100 NE5       30.09R
MITCHELL       CLEAR     75  66  73 NE3       30.07R
SIOUX FALLS    PTCLDY    71  64  78 N5        30.06R
WINNER         FAIR      78  58  49 E7        30.11R
YANKTON        CLEAR     76  64  66 N8        30.05R
$$

MNZ071-072-080-081-089-090-097-098-270300-
SOUTHWEST MINNESOTA

CITY           SKY/WX    TMP DP  RH WIND       PRES   REMARKS
FAIRMONT       CLEAR     70  65  84 N5        30.03R
JACKSON        CLEAR     68  61  77 CALM      30.06R
LUVERNE        CLEAR     72  59  64 N3        30.07R
MARSHALL       CLEAR     72  65  78 N6        30.05S
MONTEVIDEO     CLEAR     73  61  64 N7        30.05S
PIPESTONE      CLEAR     73  63  68 NE3       30.08S
REDWOOD FALLS  CLEAR     74  62  66 N6        30.02S
TRACY          CLEAR     71  66  83 NW5       30.06R
WINDOM         CLEAR     72  64  78 CALM      30.05R
WORTHINGTON    CLEAR     69  62  78 N8        30.07R
$$

IAZ001>003-012>014-020>022-031-032-NEZ013-014-SDZ071-270300-
NORTHWEST IOWA

CITY           SKY/WX    TMP DP  RH WIND       PRES   REMARKS
CHEROKEE       PTCLDY    76  73  91 N3        30.02R
DENISON        CLEAR     75  72  88 NE6       30.01S
ESTHERVILLE    CLEAR     71  65  81 N8        30.03R
ORANGE CITY    CLEAR     75  64  69 N8        30.04S
SHELDON        CLEAR     70  64  83 N6        30.04R
SIOUX CITY     CLEAR     79  71  76 N8        30.00R
SPENCER        CLEAR     75  65  70 N7        30.03R
STORM LAKE     PTCLDY    73  70  88 N3        30.02S
$$

ABBREVIATIONS USED IN REMARKS
   TC - TEMPERATURE IN CELSIUS
  WCI - WIND CHILL INDEX
   HX - HEAT INDEX
  VSB - VISIBILITY





USA.gov is the U.S. government's official web portal to all federal, state and local government web resources and services.